GW0980 Weather Reports


Display with metric or nautical units.
time (UTC)temp
F
wind
direction
speed
MPH
gust
MPH
rain 1hr
in
rain 24hr
in
rain mn
in
humidity
%
barometer
mb
20260906090204 55 286 1.0 6.0 0.00 0.01 0.00 93 1015.5
20260906084556 55 291 1.0 3.0 0.00 0.07 0.00 93 1015.7
20260906083048 54 295 1.0 4.0 0.00 0.07 0.00 94 1015.7
20260906081551 54 280 1.0 4.0 0.00 0.07 0.00 94 1015.8
20260906080055 54 309 1.0 3.0 0.00 0.07 0.00 94 1015.7
20260906074549 55 295 1.0 3.0 0.00 0.08 0.00 94 1015.8
20260906073057 55 0 0.0 1.0 0.00 0.08 0.00 94 1015.9
20260906071554 55 0 0.0 1.0 0.00 0.08 0.00 94 1016.0
20260906070105 55 0 0.0 1.0 0.00 0.08 0.00 92 1016.0
20260906064548 56 299 0.0 0.0 0.00 0.08 0.08 93 1016.0
20260906063050 56 300 1.0 4.0 0.00 0.08 0.08 92 1015.9
20260906061602 56 295 1.0 4.0 0.00 0.08 0.08 92 1016.0
20260906060048 56 307 1.0 3.0 0.00 0.08 0.08 92 1016.2
20260906054552 56 283 0.0 3.0 0.00 0.08 0.08 92 1016.2
20260906053053 57 301 0.0 2.0 0.00 0.08 0.08 92 1016.3
20260906051547 57 0 1.0 3.0 0.00 0.08 0.08 92 1016.4
20260906050105 57 290 2.0 5.0 0.00 0.08 0.08 92 1016.4
20260906044551 57 302 0.0 1.0 0.00 0.08 0.08 92 1016.5
20260906043104 57 306 0.0 4.0 0.00 0.08 0.08 91 1016.5
20260906041548 58 301 0.0 1.0 0.00 0.08 0.08 91 1016.5
20260906040111 58 0 0.0 3.0 0.00 0.08 0.08 90 1016.5
20260906034551 58 285 0.0 3.0 0.00 0.08 0.08 89 1016.4
20260906033052 59 307 1.0 5.0 0.00 0.08 0.08 89 1016.5
20260906031542 59 304 3.0 8.0 0.00 0.08 0.08 88 1016.2
20260906030048 59 287 3.0 8.0 0.00 0.08 0.08 87 1016.2
20260906024549 60 281 3.0 7.0 0.00 0.08 0.08 86 1016.3
20260906023105 60 318 3.0 6.0 0.00 0.08 0.08 86 1016.3
20260906021551 60 305 2.0 5.0 0.00 0.08 0.08 86 1016.3
20260906020050 61 308 2.0 7.0 0.00 0.08 0.08 85 1016.3
20260906014557 61 0 2.0 6.0 0.00 0.28 0.08 84 1016.2
20260906013049 61 0 1.0 5.0 0.00 0.28 0.08 83 1016.3
20260906011554 62 277 2.0 7.0 0.00 0.28 0.08 80 1016.2
20260906010050 62 276 2.0 5.0 0.00 0.28 0.08 80 1016.0
20260906004604 62 281 2.0 3.0 0.00 0.73 0.08 80 1016.0
20260906003100 62 286 0.0 4.0 0.00 0.73 0.08 80 1016.2
20260906001547 62 284 1.0 5.0 0.00 0.73 0.08 80 1016.3
20260906000104 62 283 2.0 4.0 0.00 0.73 0.08 79 1016.4
20260905234556 63 277 2.0 2.0 0.00 0.74 0.08 79 1016.4
20260905233053 64 0 1.0 2.0 0.00 0.74 0.08 78 1016.3
20260905231548 64 266 1.0 7.0 0.00 0.74 0.08 80 1016.4
20260905230052 63 311 2.0 4.0 0.00 0.74 0.08 81 1016.3
20260905224602 62 0 0.0 1.0 0.00 0.74 0.08 84 1016.7
20260905223049 62 0 0.0 2.0 0.00 0.74 0.08 85 1016.8
20260905221553 62 0 0.0 0.0 0.00 0.74 0.08 85 1016.9
20260905220049 62 0 0.0 0.0 0.00 0.74 0.08 84 1017.1
20260905214557 61 0 0.0 1.0 0.00 0.74 0.08 82 1017.2
20260905213053 62 0 0.0 1.0 0.00 0.74 0.08 82 1017.2
20260905211550 62 0 0.0 1.0 0.00 0.74 0.08 86 1017.4
20260905210048 61 0 0.0 0.0 0.00 0.74 0.08 87 1017.4
20260905204545 61 0 0.0 1.0 0.01 0.78 0.08 88 1017.4
20260905203051 60 0 0.0 0.0 0.01 0.78 0.08 88 1017.5
20260905201549 61 0 0.0 1.0 0.01 0.78 0.08 86 1017.5
20260905200055 61 0 0.0 2.0 0.00 0.77 0.07 85 1017.6
20260905194545 60 0 0.0 2.0 0.00 0.95 0.07 83 1017.5
20260905193051 60 140 1.0 3.0 0.00 0.95 0.07 85 1017.6
20260905191548 60 0 0.0 1.0 0.00 0.95 0.07 90 1017.6
20260905190054 59 141 0.0 2.0 0.00 0.95 0.07 92 1017.7
20260905184601 59 0 0.0 2.0 0.00 0.95 0.07 93 1017.7
20260905183052 58 108 0.0 2.0 0.00 0.95 0.07 96 1017.7
20260905181553 57 0 0.0 4.0 0.00 0.95 0.07 96 1017.5
20260905180053 57 0 0.0 3.0 0.00 0.95 0.07 97 1017.6
20260905174550 56 0 0.0 2.0 0.00 0.95 0.07 96 1017.6
20260905173046 56 104 0.0 4.0 0.00 0.95 0.07 96 1017.5
20260905171544 56 32 0.0 5.0 0.00 0.95 0.07 96 1017.4
20260905170049 56 0 0.0 5.0 0.00 0.95 0.07 96 1017.3
20260905164552 56 72 1.0 5.0 0.00 0.95 0.07 96 1017.4
20260905163049 57 83 1.0 3.0 0.00 0.95 0.07 97 1017.3
20260905161550 57 100 0.0 2.0 0.00 0.95 0.07 97 1017.4
20260905160048 56 0 0.0 1.0 0.00 0.95 0.07 97 1017.4
20260905154549 56 99 0.0 1.0 0.00 0.95 0.07 97 1017.4
20260905153057 56 0 0.0 1.0 0.00 0.95 0.07 97 1017.5
20260905151553 55 0 0.0 2.0 0.00 0.95 0.07 97 1017.4
20260905150048 55 0 0.0 2.0 0.00 0.95 0.07 97 1017.4
20260905144550 55 0 0.0 2.0 0.00 0.95 0.07 97 1017.3
20260905143045 55 95 0.0 2.0 0.00 0.95 0.07 97 1017.4
20260905141555 55 0 0.0 2.0 0.00 0.95 0.07 97 1017.2
20260905140047 55 0 0.0 3.0 0.00 0.95 0.07 97 1017.2
20260905134544 55 116 0.0 2.0 0.00 0.96 0.07 97 1017.2
20260905133049 55 0 0.0 1.0 0.00 0.96 0.07 97 1017.0
20260905131603 55 0 0.0 1.0 0.00 0.96 0.07 97 1017.0
20260905130052 55 0 0.0 1.0 0.00 0.96 0.07 97 1017.0
20260905124551 55 0 0.0 1.0 0.00 0.96 0.07 97 1017.0
20260905123049 54 23 0.0 2.0 0.00 0.96 0.07 97 1017.0
20260905121550 55 46 0.0 1.0 0.00 0.96 0.07 97 1016.8
20260905120050 55 0 0.0 1.0 0.00 0.96 0.07 97 1016.7
20260905114548 55 0 0.0 1.0 0.00 0.96 0.07 97 1016.8
20260905113047 55 0 0.0 1.0 0.00 0.96 0.07 97 1016.7
20260905111602 55 0 0.0 1.0 0.00 0.96 0.07 97 1016.7
20260905110055 55 0 0.0 1.0 0.00 0.96 0.07 97 1016.7
20260905104548 55 0 0.0 2.0 0.00 0.96 0.07 97 1016.7
20260905103050 55 0 0.0 1.0 0.00 0.96 0.07 97 1016.7
20260905101549 55 0 0.0 1.0 0.00 0.96 0.07 97 1016.7
20260905100049 55 0 0.0 1.0 0.00 0.96 0.07 97 1016.6
20260905094549 55 0 0.0 0.0 0.00 1.00 0.07 97 1016.7
20260905093052 55 0 0.0 0.0 0.00 1.00 0.07 97 1016.7
20260905091550 55 0 0.0 1.0 0.03 1.00 0.07 97 1016.6